This is the latest recevied weather packets stored in our database for station/object N1UNH. If no packets are shown the sender has not sent any weather packets the latest 10 day(s).
| Time | Temp. | Humidity | Pressure | Rain* | Wind** | Luminosity | Snow |
|---|---|---|---|---|---|---|---|
| 1777646894 | 10.56° C | 52% | 1015.7 hPa | 0 mm | - | 249 W/m² | - |
| 1777646589 | 10.56° C | 51% | 1015.6 hPa | 0 mm | - | 330 W/m² | - |
| 1777646287 | 10.56° C | 50% | 1015.6 hPa | 0 mm | - | 243 W/m² | - |
| 1777645983 | 10° C | 50% | 1015.7 hPa | 0 mm | - | 291 W/m² | - |
| 1777645680 | 10° C | 52% | 1015.5 hPa | 0 mm | - | 155 W/m² | - |
| 1777645376 | 10° C | 53% | 1015.6 hPa | 0 mm | - | 269 W/m² | - |
| 1777645072 | 9.44° C | 52% | 1015.6 hPa | 0 mm | - | 200 W/m² | - |
| 1777644769 | 10° C | 52% | 1015.5 hPa | 0 mm | - | 216 W/m² | - |
| 1777644466 | 10° C | 51% | 1015.5 hPa | 0 mm | - | 191 W/m² | - |
| 1777644163 | 10.56° C | 50% | 1015.4 hPa | 0 mm | - | 175 W/m² | - |
| 1777643859 | 10° C | 53% | 1015.1 hPa | 0 mm | - | 180 W/m² | - |
| 1777643557 | 10° C | 53% | 1015.1 hPa | 0 mm | - | 137 W/m² | - |
| 1777643253 | 10° C | 57% | 1015.4 hPa | 0 mm | - | 160 W/m² | - |
| 1777642950 | 9.44° C | 61% | 1015.2 hPa | 0 mm | - | 92 W/m² | - |
| 1777642646 | 9.44° C | 55% | 1015.2 hPa | 0 mm | - | 81 W/m² | - |
| 1777642344 | 8.89° C | 61% | 1015 hPa | 0 mm | - | 73 W/m² | - |
| 1777642040 | 8.89° C | 56% | 1015.2 hPa | 0 mm | - | 58 W/m² | - |
| 1777641736 | 8.89° C | 58% | 1015.4 hPa | 0 mm | - | 71 W/m² | - |
| 1777641431 | 8.33° C | 60% | 1015.1 hPa | 0 mm | - | 166 W/m² | - |
| 1777641127 | 8.33° C | 60% | 1014.9 hPa | 0 mm | - | 44 W/m² | - |
| 1777640822 | 8.33° C | 62% | 1015.1 hPa | 0 mm | - | 39 W/m² | - |
| 1777640520 | 8.33° C | 60% | 1015.1 hPa | 0 mm | - | 38 W/m² | - |
| 1777640217 | 7.78° C | 68% | 1015.2 hPa | 0 mm | - | 47 W/m² | - |
| 1777639913 | 7.78° C | 63% | 1015.1 hPa | 0 mm | - | 44 W/m² | - |
| 1777639610 | 7.78° C | 67% | 1015 hPa | 0 mm | - | 36 W/m² | - |
* Rain latest hour (hover to see other rain measurements)
** Current wind speed in m/s (hover to see current wind gust speed)